Meteo pe oră la Aalst

Astăzi, 13 Iunie, Duminică

Timp Temperatura Precipitaţii Vânt Presiune Umiditate
00:00 +12°C° 0 mm 2 m/s 768 mmHg 80%
01:00 +11°C° 0 mm 1 m/s 768 mmHg 80%
02:00 +11°C° 0 mm 1 m/s 768 mmHg 81%
03:00 +10°C° 0 mm 1 m/s 768 mmHg 81%
04:00 +12°C° 0 mm 1 m/s 768 mmHg 76%
05:00 +13°C° 0 mm 1 m/s 769 mmHg 71%
06:00 +14°C° 0 mm 1 m/s 769 mmHg 67%
07:00 +16°C° 0 mm 1 m/s 769 mmHg 61%
08:00 +18°C° 0 mm 1 m/s 769 mmHg 56%
09:00 +19°C° 0 mm 2 m/s 769 mmHg 50%
10:00 +20°C° 0 mm 2 m/s 769 mmHg 48%
11:00 +21°C° 0 mm 2 m/s 769 mmHg 46%
12:00 +24°C° 0 mm 2 m/s 769 mmHg 44%
13:00 +24°C° 0 mm 2 m/s 768 mmHg 43%
14:00 +24°C° 0 mm 2 m/s 768 mmHg 43%
15:00 +25°C° 0 mm 2 m/s 767 mmHg 42%
16:00 +25°C° 0 mm 2 m/s 767 mmHg 46%
17:00 +24°C° 0 mm 2 m/s 767 mmHg 51%
18:00 +24°C° 0 mm 2 m/s 767 mmHg 55%
19:00 +21°C° 0 mm 2 m/s 767 mmHg 60%
20:00 +19°C° 0 mm 2 m/s 767 mmHg 66%
21:00 +16°C° 0 mm 2 m/s 767 mmHg 71%
22:00 +16°C° 0 mm 2 m/s 767 mmHg 72%
23:00 +15°C° 0 mm 1 m/s 766 mmHg 73%

Mâine, 14 Iunie, Luni

Timp Temperatura Precipitaţii Vânt Presiune Umiditate
00:00 +15°C° 0 mm 1 m/s 766 mmHg 74%
01:00 +14°C° 0 mm 1 m/s 766 mmHg 74%
02:00 +14°C° 0 mm 1 m/s 766 mmHg 74%
03:00 +13°C° 0 mm 2 m/s 765 mmHg 74%
04:00 +15°C° 0 mm 1 m/s 765 mmHg 70%
05:00 +16°C° 0 mm 1 m/s 765 mmHg 67%
06:00 +18°C° 0 mm 1 m/s 765 mmHg 63%
07:00 +19°C° 0 mm 2 m/s 765 mmHg 59%
08:00 +21°C° 0 mm 2 m/s 765 mmHg 54%
09:00 +24°C° 0 mm 2 m/s 765 mmHg 49%
10:00 +25°C° 0 mm 2 m/s 764 mmHg 46%
11:00 +26°C° 0 mm 2 m/s 764 mmHg 43%
12:00 +28°C° 0 mm 2 m/s 764 mmHg 40%
13:00 +28°C° 0 mm 2 m/s 763 mmHg 40%
14:00 +28°C° 0 mm 2 m/s 763 mmHg 40%
15:00 +28°C° 0 mm 2 m/s 763 mmHg 40%
16:00 +27°C° 0 mm 2 m/s 763 mmHg 46%
17:00 +26°C° 0 mm 3 m/s 763 mmHg 51%
18:00 +25°C° 0 mm 3 m/s 763 mmHg 57%
19:00 +22°C° 0 mm 3 m/s 763 mmHg 64%
20:00 +20°C° 0 mm 3 m/s 763 mmHg 71%
21:00 +18°C° 0 mm 3 m/s 764 mmHg 78%
22:00 +17°C° 0 mm 2 m/s 764 mmHg 81%
23:00 +17°C° 0 mm 2 m/s 764 mmHg 84%

Poimâine, 15 Iunie, Marţi

Timp Temperatura Precipitaţii Vânt Presiune Umiditate
00:00 +16°C° 0 mm 2 m/s 764 mmHg 86%
01:00 +16°C° 0 mm 2 m/s 764 mmHg 87%
02:00 +16°C° 0 mm 2 m/s 764 mmHg 88%
03:00 +16°C° 0 mm 2 m/s 764 mmHg 89%
04:00 +16°C° 0 mm 2 m/s 764 mmHg 87%
05:00 +17°C° 0 mm 2 m/s 764 mmHg 84%
06:00 +18°C° 0 mm 2 m/s 764 mmHg 82%
07:00 +19°C° 0 mm 2 m/s 764 mmHg 79%
08:00 +20°C° 0 mm 3 m/s 764 mmHg 76%
09:00 +20°C° 0 mm 3 m/s 764 mmHg 73%
10:00 +21°C° 0 mm 3 m/s 764 mmHg 70%
11:00 +22°C° 0 mm 3 m/s 764 mmHg 67%
12:00 +24°C° 0 mm 3 m/s 764 mmHg 64%
13:00 +25°C° 0 mm 3 m/s 763 mmHg 62%
14:00 +25°C° 0 mm 3 m/s 763 mmHg 60%
15:00 +26°C° 0 mm 2 m/s 763 mmHg 58%
16:00 +25°C° 0 mm 3 m/s 762 mmHg 61%
17:00 +24°C° 0 mm 3 m/s 762 mmHg 64%
18:00 +24°C° 0 mm 3 m/s 762 mmHg 68%
19:00 +21°C° 0 mm 3 m/s 762 mmHg 72%
20:00 +20°C° 0 mm 3 m/s 762 mmHg 76%
21:00 +18°C° 0 mm 2 m/s 762 mmHg 80%
22:00 +18°C° 0 mm 2 m/s 762 mmHg 82%
23:00 +17°C° 0 mm 2 m/s 761 mmHg 84%

16 Iunie, Miercuri

Timp Temperatura Precipitaţii Vânt Presiune Umiditate
00:00 +17°C° 0 mm 2 m/s 761 mmHg 85%
01:00 +17°C° 0 mm 2 m/s 761 mmHg 86%
02:00 +16°C° 0 mm 2 m/s 761 mmHg 86%
03:00 +16°C° 0 mm 2 m/s 760 mmHg 87%
04:00 +17°C° 0 mm 2 m/s 760 mmHg 83%
05:00 +19°C° 0 mm 2 m/s 760 mmHg 79%
06:00 +20°C° 0 mm 2 m/s 759 mmHg 75%
07:00 +23°C° 0 mm 2 m/s 759 mmHg 70%
08:00 +25°C° 0 mm 2 m/s 759 mmHg 65%
09:00 +27°C° 0 mm 2 m/s 759 mmHg 59%
10:00 +28°C° 0 mm 2 m/s 759 mmHg 55%
11:00 +29°C° 0 mm 2 m/s 758 mmHg 51%
12:00 +30°C° 0 mm 2 m/s 758 mmHg 47%
13:00 +31°C° 0 mm 2 m/s 758 mmHg 45%
14:00 +31°C° 0 mm 2 m/s 757 mmHg 44%
15:00 +33°C° 0 mm 3 m/s 757 mmHg 42%
16:00 +31°C° 0 mm 2 m/s 757 mmHg 46%
17:00 +31°C° 0 mm 2 m/s 757 mmHg 50%
18:00 +30°C° 0 mm 2 m/s 756 mmHg 54%
19:00 +28°C° 0 mm 1 m/s 756 mmHg 60%
20:00 +26°C° 0 mm 1 m/s 756 mmHg 66%
21:00 +24°C° 0 mm 1 m/s 756 mmHg 72%
22:00 +23°C° 0 mm 1 m/s 756 mmHg 74%
23:00 +23°C° 0 mm 2 m/s 756 mmHg 75%

17 Iunie, Joi

Timp Temperatura Precipitaţii Vânt Presiune Umiditate
00:00 +21°C° 0 mm 2 m/s 756 mmHg 77%
01:00 +21°C° 0 mm 2 m/s 756 mmHg 80%
02:00 +21°C° 0 mm 2 m/s 755 mmHg 82%
03:00 +20°C° 0 mm 2 m/s 755 mmHg 85%
04:00 +21°C° 0.1 mm 2 m/s 755 mmHg 84%
05:00 +23°C° 0.1 mm 2 m/s 755 mmHg 84%
06:00 +23°C° 0.1 mm 1 m/s 755 mmHg 83%
07:00 +25°C° 0.1 mm 2 m/s 755 mmHg 79%
08:00 +26°C° 0.1 mm 3 m/s 755 mmHg 75%
09:00 +27°C° 0.1 mm 4 m/s 756 mmHg 71%
10:00 +28°C° 0.1 mm 4 m/s 756 mmHg 67%
11:00 +29°C° 0.1 mm 4 m/s 756 mmHg 63%
12:00 +29°C° 0.1 mm 4 m/s 756 mmHg 60%
13:00 +30°C° 0 mm 4 m/s 756 mmHg 58%
14:00 +30°C° 0 mm 3 m/s 756 mmHg 55%
15:00 +30°C° 0 mm 3 m/s 756 mmHg 53%
16:00 +30°C° 0 mm 3 m/s 756 mmHg 57%
17:00 +29°C° 0 mm 2 m/s 756 mmHg 61%
18:00 +29°C° 0 mm 2 m/s 756 mmHg 65%
19:00 +27°C° 0 mm 2 m/s 757 mmHg 70%
20:00 +25°C° 0 mm 2 m/s 757 mmHg 76%
21:00 +24°C° 0 mm 2 m/s 758 mmHg 82%
22:00 +23°C° 0.1 mm 2 m/s 757 mmHg 85%
23:00 +21°C° 0.1 mm 2 m/s 757 mmHg 88%

18 Iunie, Vineri

Timp Temperatura Precipitaţii Vânt Presiune Umiditate
00:00 +20°C° 0.1 mm 2 m/s 757 mmHg 91%
01:00 +21°C° 0.7 mm 1 m/s 757 mmHg 93%
02:00 +21°C° 0.7 mm 1 m/s 757 mmHg 95%
03:00 +21°C° 0.7 mm 1 m/s 757 mmHg 96%
04:00 +21°C° 0.2 mm 1 m/s 757 mmHg 95%
05:00 +22°C° 0.2 mm 1 m/s 757 mmHg 94%
06:00 +22°C° 0.2 mm 1 m/s 757 mmHg 93%
07:00 +23°C° 0.1 mm 2 m/s 757 mmHg 90%
08:00 +23°C° 0.1 mm 2 m/s 757 mmHg 87%
09:00 +24°C° 0.1 mm 2 m/s 757 mmHg 83%
10:00 +25°C° 0.1 mm 4 m/s 757 mmHg 74%
11:00 +27°C° 0.1 mm 5 m/s 757 mmHg 65%
12:00 +29°C° 0.1 mm 7 m/s 756 mmHg 56%
13:00 +29°C° 0.1 mm 7 m/s 756 mmHg 56%
14:00 +28°C° 0.1 mm 8 m/s 756 mmHg 56%
15:00 +28°C° 0.1 mm 9 m/s 756 mmHg 56%
16:00 +26°C° 0 mm 10 m/s 756 mmHg 62%
17:00 +23°C° 0 mm 10 m/s 756 mmHg 68%
18:00 +19°C° 0 mm 10 m/s 757 mmHg 74%
19:00 +19°C° 0 mm 9 m/s 757 mmHg 76%
20:00 +18°C° 0 mm 8 m/s 757 mmHg 77%
21:00 +17°C° 0 mm 7 m/s 758 mmHg 79%
22:00 +17°C° 0 mm 7 m/s 758 mmHg 81%
23:00 +17°C° 0 mm 6 m/s 758 mmHg 82%
Arată mai mult

Formular de consimțământ

Meteoprog și furnizorii noștri de servicii pot stoca și accesa date personale, precum cookies, identificatori de dispozitiv sau alte tehnologii similare pe dispozitivul dumneavoastră și procesa astfel de date pentru a personaliza conținutul și reclamele, dar și pentru a oferi caracteristici de social media și pentru a analiza traficul.

  • Stocarea și/sau accesarea informațiilor pe dispozitivul dumneavoastră

    Cookies, identificatori de dispozitiv sau alte informații pot fi stocate sau accesate pe dispozitiv în scopurile indicate mai sus.

  • Reclame și conținut personalizat, evaluarea reclamelor și a conținutului, informații despre audiențe și dezvoltarea produselor

    Reclamele și conținutul pot fi personalizate pe baza unui profil. Pot fi adăugate date suplimentare pentru a personaliza mai bine reclamele și conținutul. Performanța reclamelor și conținutului poate fi măsurată. Pot fi obținute informații despre utilizatorii care au văzut reclamele și conținutul. Aceste date pot fi utilizate pentru a dezvolta sau îmbunătăți experiența utilizatorilor, sistemele și software-ul.

Dând clic pe ‘Sunt de acord’, permiteți utilizarea cookie-urilor menționate, a identificatorilor de dispozitiv, balizelor web sau altor tehnologii similare. Setările pot fi modificate din browser-ul dispozitivului dumneavoastră.

În anumite scopuri, interesele legitime pot prima asupra consimțământului. Puteți citi mai multe informații în acest sens în Politica privind Confidențialitatea Datelor și Cookie.